Regional Weather Roundup
Issued by NWS

Home | Current Version | Previous Version | Graphics & Text | Print | Product List | Glossary On
Versions: 1 2 3 4 5 6 7 8 9 10 11 12 13 14 15 16 17 18 19 20 21 22 23 24 25 26 27 28 29 30 31 32 33 34 35 36 37 38 39 40 41 42 43 44 45 46 47 48 49 50
000
ASUS43 KFSD 251702
RWRSD

WEATHER ROUNDUP FOR SOUTH DAKOTA
NATIONAL WEATHER SERVICE SIOUX FALLS SD
1200 PM CDT SAT OCT 25 2014

NOTE: "FAIR" INDICATES FEW OR NO CLOUDS BELOW 12,000 FEET WITH NO
SIGNIFICANT WEATHER AND/OR OBSTRUCTIONS TO VISIBILITY.


SDZ001>005-009-010-012>017-251800-
NORTHWEST AND NORTH CENTRAL SOUTH DAKOTA

CITY           SKY/WX    TMP DP  RH WIND       PRES   REMARKS
BUFFALO          N/A     59  33  37 SE9       30.05F
FAITH            N/A     60  33  36 SE12      30.15F
MOBRIDGE       SUNNY     58  36  43 CALM      30.14F
$$

SDZ012>016-024>037-041>051-057-063-072>074-251800-
SOUTHWEST AND SOUTH CENTRAL SOUTH DAKOTA

CITY           SKY/WX    TMP DP  RH WIND       PRES   REMARKS
RAPID CTY ARPT SUNNY     59  32  36 S18G25    30.14F
PIERRE         SUNNY     60  33  36 SE5       30.16F
CUSTER         SUNNY     54  31  41 S5        30.19F
ELLSWORTH AFB  SUNNY     60  33  36 S20       30.12F
PHILIP         SUNNY     58  37  45 VRB3      30.16F
PINE RIDGE     SUNNY     56  39  53 CALM      30.16F
SPEARFISH      FAIR      57  36  44 CALM      30.11F
WINNER         FAIR      62  31  31 VRB5      30.17F
$$

SDZ004>011-016>023-039-040-251800-
NORTHEAST SOUTH DAKOTA

CITY           SKY/WX    TMP DP  RH WIND       PRES   REMARKS
ABERDEEN       SUNNY     60  34  37 N7        30.17S
WATERTOWN      SUNNY     59  33  37 NW10      30.15R
SISSETON         N/A     60  30  32 N14G23    30.13S
$$

SDZ017-020-022-023-036>040-048>070-251800-
SOUTHEAST SOUTH DAKOTA

CITY           SKY/WX    TMP DP  RH WIND       PRES   REMARKS
SIOUX FALLS    MOSUNNY   63  36  36 N9        30.15S
HURON          SUNNY     62  34  35 VRB3      30.16S
CHAMBERLAIN    SUNNY     62  33  34 E3        30.17F
MITCHELL         N/A     62  37  39 CALM      30.17S
YANKTON        SUNNY     63  37  39 NE5       30.15F
$$

ABBREVIATIONS USED IN REMARKS
   TC - TEMPERATURE IN CELSIUS
  WCI - WIND CHILL INDEX
   HX - HEAT INDEX
  VSB - VISIBILITY




USA.gov is the U.S. government's official web portal to all federal, state and local government web resources and services.